Location: *
(48.4333°N, 5.0333°W)
Time: 02:41:36
(UTC+00:00)

LilacSat-2 - Pass Details

Date: 24 October 2021
Orbit: 511 x 532 km, 97.5° (Epoch: 03 December)

Event Time Altitude Azimuth Distance (km) Brightness Sun altitude
Rises 06:05:28 0° 15° (NNE) 2,637 ? -8.6°
Reaches altitude 10° 06:07:35 10° 19° (NNE) 1,745 ? -8.3°
Maximum altitude 06:11:19 63° 101° (E) 579 ? -7.7°
Drops below altitude 10° 06:15:01 10° 183° (S) 1,732 ? -7.1°
Sets 06:17:07 0° 187° (S) 2,615 ? -6.7°
